User: anonymous   Login
Location: İstanbul
(41.0082°N, 28.9784°E)
Time: 00:21:10
(UTC+03:00)
Language:

Max Valier Satellite - Orbit

View from above orbital plane
View from above orbital plane
View from above satellite
View from above satellite

Ground track
Ground track

The orbit data is extracted from the following two-line orbital elements,

1 42778U 17036P   24115.08429820  .00167512  00000-0  13976-2 0  9991
2 42778  97.1061 151.8607 0004440  82.1849 277.9918 15.69539863381040
Epoch (UTC): 24 April 2024 02:01:23
Eccentricity: 0.0004440
inclination: 97.1061°
perigee height: 357 km
apogee height: 363 km
right ascension of ascending node: 151.8607°
argument of perigee: 82.1849°
revolutions per day: 15.69539863
mean anomaly at epoch: 277.9918°
orbit number at epoch: 38104

The dashed part of the orbit path shows where the satellite is in the earth's shadow,  

DLR